TimeAKST,TemperatureF,Dew PointF,Humidity,Sea Level PressureIn,VisibilityMPH,Wind Direction,Wind SpeedMPH,Gust SpeedMPH,PrecipitationIn,Events,Conditions,WindDirDegrees,DateUTC
12:53 AM,-16.1,-23.1,71,29.54,7.0,ENE,16.1,-,N/A,,Overcast,60,2013-02-23 09:53:00
1:53 AM,-15.0,-22.0,71,29.53,3.0,ENE,13.8,-,0.00,,Overcast,70,2013-02-23 10:53:00
2:53 AM,-15.0,-20.9,75,29.51,5.0,ENE,11.5,-,0.00,,Haze,60,2013-02-23 11:53:00
3:53 AM,-15.0,-20.9,75,29.51,7.0,ENE,13.8,-,0.00,,Overcast,60,2013-02-23 12:53:00
4:53 AM,-15.0,-20.9,75,29.49,5.0,ENE,17.3,-,N/A,,Haze,60,2013-02-23 13:53:00
5:53 AM,-15.0,-20.9,75,29.49,8.0,ENE,11.5,-,N/A,,Overcast,60,2013-02-23 14:53:00
6:53 AM,-15.0,-20.9,75,29.47,8.0,ENE,17.3,-,N/A,,Overcast,60,2013-02-23 15:53:00
7:53 AM,-17.0,-23.1,74,29.47,10.0,ENE,15.0,-,N/A,,Mostly Cloudy,60,2013-02-23 16:53:00
8:53 AM,-18.0,-25.1,70,29.46,10.0,NE,13.8,-,N/A,,Overcast,50,2013-02-23 17:53:00
9:53 AM,-20.0,-26.0,74,29.46,10.0,ENE,8.1,-,N/A,,Overcast,70,2013-02-23 18:53:00
10:53 AM,-18.9,-25.1,74,29.46,10.0,Calm,Calm,-,N/A,,Clear,0,2013-02-23 19:53:00
11:53 AM,-20.0,-26.0,74,29.46,10.0,NE,10.4,-,N/A,,Clear,50,2013-02-23 20:53:00
12:53 PM,-18.0,-23.1,78,29.46,10.0,Calm,Calm,-,N/A,,Scattered Clouds,0,2013-02-23 21:53:00
1:53 PM,-17.0,-23.1,74,29.46,10.0,Calm,Calm,-,N/A,,Clear,0,2013-02-23 22:53:00
2:53 PM,-22.0,-27.9,74,29.44,10.0,SSW,6.9,-,N/A,,Clear,210,2013-02-23 23:53:00
3:53 PM,-20.9,-27.0,73,29.44,10.0,SSW,6.9,-,N/A,,Clear,200,2013-02-24 00:53:00
4:53 PM,-22.0,-29.0,70,29.44,9.0,SSW,8.1,-,N/A,,Clear,200,2013-02-24 01:53:00
5:53 PM,-22.0,-29.0,70,29.44,10.0,SSW,8.1,-,N/A,,Clear,210,2013-02-24 02:53:00
6:53 PM,-24.0,-29.9,74,29.44,10.0,SSW,9.2,-,N/A,,Clear,200,2013-02-24 03:53:00
7:53 PM,-25.1,-31.0,74,29.45,10.0,SSW,9.2,-,N/A,,Clear,210,2013-02-24 04:53:00
8:53 PM,-26.0,-32.1,73,29.45,10.0,SSW,9.2,-,N/A,,Clear,210,2013-02-24 05:53:00
9:53 PM,-26.0,-32.1,73,29.45,10.0,SSW,8.1,-,N/A,,Clear,210,2013-02-24 06:53:00
10:53 PM,-27.0,-32.1,77,29.46,10.0,SSW,9.2,-,N/A,,Clear,210,2013-02-24 07:53:00
11:53 PM,-27.0,-33.0,73,29.47,10.0,SSW,8.1,-,N/A,,Clear,210,2013-02-24 08:53:00